[[{"header":{"parameterUnit":"m.s-1","parameterCategory":1,"la1":30.2991,"la2":30.254,"lo1":-89.0895,"lo2":-89.0444,"dy":0.0017,"dx":0.0017,"nx":28,"ny":28,"refTime":"2026-01-03T03:00:00:Z","depth":0,"parameterNumber":2,"parameterNumberName":"U-component_of_WINDS"},"data":[0,0,0,0,0,0,0,0,0,0,0,0,0,0,0,0,0,0,0,0,0,0,0,0,0,0,0,0,0,0,0,0,0,0,0,0,0,0,0,0,0,0,0,0,0,0,0,0,0,0,0,0,0,0,0,0,0,0,-1.2491,-1.2492,0,-1.2563,-1.2564,-1.2565,-1.2551,-1.255,-1.2549,-1.2548,-1.2624,-1.2627,-1.263,0,0,0,0,0,0,0,0,0,0,0,0,0,-1.2346,-1.2349,-1.2491,-1.2492,-1.2493,-1.2563,-1.2564,-1.2565,-1.2552,-1.255,-1.2549,-1.2547,-1.2623,-1.2627,-1.2631,0,0,0,0,0,0,0,0,0,0,0,0,0,-1.2412,-1.2349,-1.2491,-1.2495,-1.2496,-1.2563,-1.2564,-1.2565,-1.2552,-1.255,-1.2548,-1.2546,-1.2622,-1.2626,-1.2631,-1.27,0,0,-1.2646,-1.2648,0,0,0,0,0,0,0,0,-1.2409,-1.2418,-1.2494,-1.2495,-1.2496,-1.2546,-1.254,-1.261,-1.2552,-1.2531,-1.2548,-1.2545,-1.26,-1.2606,-1.2624,-1.2703,-1.2706,-1.2646,-1.2649,-1.2651,-1.2653,0,0,0,0,0,0,0,-1.2404,-1.2415,-1.252,-1.2495,-1.2496,-1.2494,-1.2501,-1.2554,-1.2575,-1.2533,-1.2532,-1.254,-1.26,-1.262,-1.2626,-1.2707,-1.2646,-1.2651,-1.2654,-1.2655,-1.2846,-1.2848,0,0,0,0,0,0,-1.2398,-1.2411,-1.2518,-1.2522,-1.2447,-1.2498,-1.2506,-1.2532,-1.2575,-1.2579,-1.2542,-1.2539,-1.2612,-1.262,-1.2629,-1.2711,-1.2651,-1.2656,-1.2659,-1.2844,-1.2846,-1.2849,0,0,0,0,0,0,-1.2395,-1.2408,-1.2515,-1.2466,-1.248,-1.2502,-1.2532,-1.2535,-1.2554,-1.2582,-1.2586,-1.2557,-1.2611,-1.2622,-1.2682,-1.2714,-1.2658,-1.2663,-1.2841,-1.2844,-1.2847,-1.2877,0,0,0,0,0,0,-1.2391,-1.2406,-1.2432,-1.2467,-1.2482,-1.2566,-1.2534,-1.2537,-1.2562,-1.2559,-1.2597,-1.2602,-1.261,-1.2674,-1.2686,-1.2719,-1.2666,-1.2838,-1.2843,-1.2846,-1.2874,-1.2881,-1.2888,0,0,0,0,0,-1.2386,-1.2439,-1.2434,-1.2447,-1.2515,-1.2568,-1.2577,-1.2585,-1.2564,-1.2591,-1.2609,-1.2601,-1.2708,-1.2681,-1.2694,-1.2729,-1.2836,-1.2841,-1.2846,-1.2871,-1.288,-1.2888,0,0,0,0,0,0,-1.2409,-1.2443,-1.2438,-1.2504,-1.2533,-1.2566,-1.2599,-1.2594,-1.263,-1.2627,-1.2636,-1.2644,-1.2705,-1.2723,-1.2692,-1.2797,-1.2769,-1.2777,-1.2784,-1.2793,-1.2799,-1.2794,-1.267,0,0,0,0,0,-1.2421,-1.246,-1.2489,-1.2544,-1.2559,-1.2576,-1.26,-1.2603,-1.2634,-1.2647,-1.2669,-1.27,-1.2741,-1.2767,-1.2806,-1.2876,-1.2884,-1.2906,-1.2913,-1.2919,-1.2926,-1.2964,-1.2974,-1.2864,-1.2864,-1.2864,0,0,-1.2448,-1.2472,-1.2496,-1.2549,-1.2572,-1.2614,-1.2587,-1.2632,-1.2663,-1.2654,-1.2712,-1.2729,-1.2764,-1.2829,-1.2859,-1.2846,-1.2958,-1.2925,-1.2929,-1.2934,-1.297,-1.298,-1.299,-1.2868,-1.2867,-1.2867,0,0,-1.2518,-1.2539,-1.2588,-1.2611,-1.2645,-1.2656,-1.2668,-1.2701,-1.2712,-1.277,-1.2764,-1.2801,-1.2871,-1.2896,-1.2918,-1.2996,-1.299,-1.3009,-1.3046,-1.3083,-1.3092,-1.3099,-1.3128,-1.3138,-1.3015,-1.3015,-1.3015,0,-1.2547,-1.2608,-1.2614,-1.2659,-1.2683,-1.2675,-1.2724,-1.2746,-1.2792,-1.2809,-1.2793,-1.288,-1.2904,-1.2974,-1.2993,-1.3011,-1.3025,-1.3005,-1.309,-1.3097,-1.3105,-1.3132,-1.3143,-1.3017,-1.3017,-1.3017,-1.3017,0,-1.2643,-1.2685,-1.272,-1.2763,-1.2791,-1.2838,-1.2851,-1.2878,-1.2879,-1.2892,-1.2951,-1.2978,-1.3022,-1.3039,-1.304,-1.311,-1.3101,-1.3087,-1.306,-1.3117,-1.3143,-1.3153,-1.302,-1.3019,-1.3019,-1.3018,0,0,-1.2731,-1.2775,-1.2788,-1.2807,-1.2844,-1.2877,-1.2924,-1.2966,-1.299,-1.3021,-1.3061,-1.312,-1.3107,-1.3132,-1.3136,-1.3168,-1.3229,-1.3151,-1.3152,-1.3165,-1.3308,-1.3318,-1.333,-1.3225,-1.3227,-1.3228,-1.3305,0,-1.2805,-1.2886,-1.2892,-1.2966,-1.3005,-1.2998,-1.3038,-1.3066,-1.3079,-1.3115,-1.3129,-1.3171,-1.3151,-1.3166,-1.3197,-1.3215,-1.3258,-1.3209,-1.3263,-1.3265,-1.3255,-1.3343,-1.3355,-1.3426,-1.3315,-1.3316,-1.3318,0,-1.2902,-1.2935,-1.3013,-1.3043,-1.306,-1.3097,-1.3135,-1.3169,-1.32,-1.3208,-1.3235,-1.3234,-1.3283,-1.3252,-1.332,-1.3286,-1.3309,-1.332,-1.3323,-1.333,-1.3296,-1.3353,-1.3449,-1.346,-1.3334,-1.3332,-1.3331,0,-1.2959,-1.3023,-1.3078,-1.3095,-1.3132,-1.3157,-1.3174,-1.3203,-1.3227,-1.3261,-1.3278,-1.3317,-1.3339,-1.337,-1.338,-1.3357,-1.3448,-1.3418,-1.3456,-1.3456,-1.3476,-1.3475,-1.3578,-1.3489,-1.3489,-1.3489,-1.3488,0,-1.3042,-1.309,-1.3104,-1.3138,-1.3191,-1.3197,-1.325,-1.3266,-1.3291,-1.3328,-1.3324,-1.3359,-1.337,-1.3407,-1.3415,-1.347,-1.348,-1.3488,-1.349,-1.3489,-1.3488,-1.3504,-1.35,-1.3491,-1.3491,-1.349,-1.349,0,-1.3115,-1.3126,-1.3186,-1.3215,-1.3224,-1.3262,-1.3287,-1.332,-1.3332,-1.3379,-1.339,-1.3409,-1.3452,-1.3465,-1.3518,-1.3523,-1.3588,-1.3585,-1.3577,-1.3578,-1.3615,-1.3611,-1.3733,-1.3749,-1.3648,-1.3649,-1.365,0,-1.3167,-1.3204,-1.3237,-1.3261,-1.3278,-1.3317,-1.3342,-1.3349,-1.3375,-1.3412,-1.3441,-1.3483,-1.3518,-1.3587,-1.3606,-1.3646,-1.3645,-1.3684,-1.3651,-1.3649,-1.3646,-1.3644,-1.3648,-1.3691,-1.3692,-1.3693,-1.3694,0,-1.3259,-1.3263,-1.3298,-1.3336,-1.3365,-1.3395,-1.3424,-1.3444,-1.3455,-1.3484,-1.3528,-1.3555,-1.3607,-1.365,-1.369,-1.3708,-1.3704,-1.3704,-1.3715,-1.3715,-1.3709,-1.3714,-1.3595,-1.3702,-1.3701,-1.37,-1.37,-1.37,-1.3325,-1.3356,-1.3384,-1.3424,-1.3446,-1.3473,-1.3505,-1.352,-1.3556,-1.3599,-1.3601,-1.3648,-1.3678,-1.3731,-1.3751,-1.3789,-1.3777,-1.3793,-1.3797,-1.3801,-1.3805,-1.3702,-1.3796,-1.3796,-1.3796,-1.3796,-1.3795,0,-1.3417,-1.3434,-1.347,-1.351,-1.3541,-1.3531,-1.3563,-1.359,-1.3631,-1.3658,-1.3692,-1.3742,-1.3783,-1.3804,-1.3845,-1.3871,-1.387,-1.3882,-1.3881,-1.3885,-1.3812,-1.3799,-1.3882,-1.3882,-1.3882,-1.3882,-1.3882,-1.3882,-1.3468,-1.3522,-1.3529,-1.3593,-1.361,-1.3656,-1.3674,-1.3699,-1.3721,-1.3777,-1.381,-1.3823,-1.3849,-1.3891,-1.3928,-1.3934,-1.3949,-1.3963,-1.3967,-1.3899,-1.389,-1.3882,-1.3869,-1.3966,-1.3966,-1.4036,-1.4037,-1.4038]},{"header":{"parameterUnit":"m.s-1","parameterCategory":1,"la1":30.2991,"la2":30.254,"lo1":-89.0895,"lo2":-89.0444,"dy":0.0017,"dx":0.0017,"nx":28,"ny":28,"refTime":"2026-01-03T03:00:00:Z","depth":0,"parameterNumber":3,"parameterNumberName":"V-component_of_WINDS"},"data":[0,0,0,0,0,0,0,0,0,0,0,0,0,0,0,0,0,0,0,0,0,0,0,0,0,0,0,0,0,0,0,0,0,0,0,0,0,0,0,0,0,0,0,0,0,0,0,0,0,0,0,0,0,0,0,0,0,0,-5.4812,-5.4812,0,-5.4828,-5.4828,-5.4828,-5.4735,-5.4732,-5.4729,-5.4727,-5.4741,-5.4744,-5.4747,0,0,0,0,0,0,0,0,0,0,0,0,0,-5.4697,-5.4699,-5.4812,-5.4812,-5.4812,-5.4828,-5.4828,-5.4829,-5.4735,-5.4732,-5.4729,-5.4726,-5.474,-5.4743,-5.4747,0,0,0,0,0,0,0,0,0,0,0,0,0,-5.4733,-5.47,-5.4812,-5.4768,-5.4764,-5.4828,-5.4828,-5.4829,-5.4736,-5.4732,-5.4728,-5.4724,-5.4739,-5.4743,-5.4747,-5.4854,0,0,-5.4761,-5.4762,0,0,0,0,0,0,0,0,-5.4731,-5.4738,-5.4774,-5.4771,-5.4767,-5.4775,-5.4793,-5.4837,-5.4737,-5.4746,-5.4727,-5.4722,-5.4756,-5.4758,-5.477,-5.4855,-5.4855,-5.4761,-5.4764,-5.4765,-5.4767,0,0,0,0,0,0,0,-5.4729,-5.4736,-5.4818,-5.4774,-5.477,-5.4746,-5.4747,-5.4801,-5.4773,-5.4745,-5.4738,-5.4742,-5.4753,-5.4766,-5.477,-5.4856,-5.4761,-5.4765,-5.4767,-5.4769,-5.5029,-5.5033,0,0,0,0,0,0,-5.4733,-5.4735,-5.4817,-5.4818,-5.4739,-5.4751,-5.4752,-5.4776,-5.4772,-5.4768,-5.4745,-5.4737,-5.4761,-5.4765,-5.477,-5.4894,-5.4765,-5.4769,-5.4772,-5.5024,-5.5029,-5.5034,0,0,0,0,0,0,-5.4731,-5.4741,-5.4817,-5.4775,-5.4783,-5.4758,-5.4786,-5.4779,-5.4792,-5.4772,-5.4767,-5.4764,-5.4758,-5.4764,-5.4834,-5.4893,-5.4771,-5.4775,-5.5019,-5.5026,-5.5032,-5.5145,0,0,0,0,0,0,-5.4728,-5.4741,-5.4782,-5.4777,-5.4785,-5.4882,-5.4789,-5.4782,-5.48,-5.479,-5.4789,-5.4784,-5.4755,-5.4828,-5.4838,-5.4897,-5.4779,-5.5014,-5.5022,-5.503,-5.5136,-5.5154,-5.517,0,0,0,0,0,-5.4724,-5.4812,-5.4784,-5.4795,-5.4836,-5.4886,-5.489,-5.4856,-5.4805,-5.4846,-5.4833,-5.4784,-5.4886,-5.4836,-5.4847,-5.4908,-5.501,-5.502,-5.5029,-5.5128,-5.5151,-5.517,0,0,0,0,0,0,-5.4823,-5.4811,-5.4779,-5.4869,-5.4879,-5.487,-5.4919,-5.4881,-5.4905,-5.4894,-5.4849,-5.4849,-5.4927,-5.4924,-5.487,-5.5011,-5.4939,-5.4951,-5.501,-5.5032,-5.5049,-5.5047,-5.4782,0,0,0,0,0,-5.4856,-5.4898,-5.4884,-5.4964,-5.4971,-5.4945,-5.4965,-5.4938,-5.4946,-5.495,-5.4942,-5.4951,-5.4985,-5.5008,-5.5038,-5.5135,-5.5133,-5.5182,-5.5199,-5.5214,-5.5225,-5.5276,-5.5297,-5.5066,-5.5066,-5.5066,0,0,-5.4923,-5.4921,-5.4951,-5.4984,-5.4989,-5.5033,-5.4949,-5.4999,-5.5031,-5.4957,-5.5023,-5.5018,-5.5025,-5.5109,-5.5146,-5.5109,-5.5288,-5.5226,-5.5238,-5.5241,-5.5288,-5.531,-5.5329,-5.5073,-5.5071,-5.507,0,0,-5.5068,-5.5072,-5.5139,-5.5146,-5.5154,-5.5136,-5.5153,-5.5149,-5.5143,-5.5209,-5.5155,-5.5192,-5.5251,-5.5258,-5.527,-5.5419,-5.5375,-5.543,-5.5521,-5.5571,-5.5589,-5.5605,-5.5658,-5.5678,-5.5441,-5.5442,-5.5442,0,-5.5151,-5.5216,-5.5178,-5.5232,-5.5248,-5.5185,-5.5252,-5.526,-5.5278,-5.529,-5.5249,-5.5322,-5.5323,-5.5408,-5.5444,-5.5456,-5.5473,-5.543,-5.559,-5.5605,-5.562,-5.567,-5.569,-5.5448,-5.5447,-5.5447,-5.5446,0,-5.5316,-5.5362,-5.5415,-5.5436,-5.5458,-5.5518,-5.5489,-5.5516,-5.5487,-5.5473,-5.5541,-5.5539,-5.5568,-5.5586,-5.5558,-5.5668,-5.5645,-5.5598,-5.5524,-5.5649,-5.5695,-5.5714,-5.5458,-5.5455,-5.5453,-5.5452,0,0,-5.5524,-5.5523,-5.5543,-5.5552,-5.5557,-5.5591,-5.5649,-5.5678,-5.5702,-5.5717,-5.5763,-5.5815,-5.5772,-5.5785,-5.5757,-5.5801,-5.5919,-5.5748,-5.5748,-5.578,-5.604,-5.6076,-5.6099,-5.5891,-5.5894,-5.5897,-5.604,0,-5.5666,-5.5765,-5.5733,-5.5833,-5.5875,-5.5815,-5.5865,-5.5873,-5.5862,-5.5895,-5.5882,-5.592,-5.586,-5.5868,-5.5909,-5.5897,-5.5971,-5.5886,-5.5933,-5.5935,-5.5933,-5.6123,-5.616,-5.6295,-5.6058,-5.6061,-5.6063,0,-5.5844,-5.5867,-5.5972,-5.5971,-5.5987,-5.6033,-5.6057,-5.609,-5.6098,-5.6087,-5.6102,-5.6065,-5.612,-5.6048,-5.6123,-5.6066,-5.6083,-5.608,-5.6085,-5.6087,-5.6006,-5.6131,-5.6337,-5.6358,-5.6091,-5.6089,-5.6087,0,-5.5985,-5.6042,-5.6112,-5.6122,-5.6122,-5.6155,-5.6157,-5.6161,-5.6181,-5.6202,-5.6214,-5.6241,-5.6256,-5.6277,-5.6248,-5.6197,-5.6328,-5.6252,-5.6319,-5.6321,-5.6349,-5.6348,-5.6562,-5.6361,-5.6361,-5.6361,-5.636,0,-5.6147,-5.6213,-5.6176,-5.6219,-5.6291,-5.6254,-5.6326,-5.6321,-5.6325,-5.6366,-5.6315,-5.6354,-5.6313,-5.6348,-5.6325,-5.6392,-5.6398,-5.639,-5.6384,-5.6395,-5.6396,-5.6406,-5.6395,-5.6366,-5.6365,-5.6364,-5.6363,0,-5.6316,-5.6294,-5.6367,-5.6361,-5.6362,-5.6415,-5.641,-5.645,-5.6435,-5.6487,-5.6497,-5.6474,-5.6513,-5.6486,-5.6524,-5.6508,-5.6595,-5.6575,-5.6593,-5.6588,-5.6656,-5.665,-5.6883,-5.6912,-5.6694,-5.6696,-5.6698,0,-5.6421,-5.6471,-5.6471,-5.6496,-5.6501,-5.654,-5.656,-5.6525,-5.6548,-5.6562,-5.6599,-5.6634,-5.6659,-5.6724,-5.671,-5.6739,-5.6719,-5.6799,-5.6723,-5.6733,-5.672,-5.6718,-5.6722,-5.6814,-5.6817,-5.6819,-5.682,0,-5.6609,-5.6595,-5.6627,-5.6656,-5.6682,-5.6702,-5.6718,-5.674,-5.6705,-5.6733,-5.6773,-5.6793,-5.6832,-5.6867,-5.6891,-5.6891,-5.685,-5.6845,-5.6862,-5.6874,-5.6882,-5.6878,-5.6635,-5.6839,-5.6837,-5.6836,-5.6835,-5.6834,-5.6749,-5.679,-5.6798,-5.6835,-5.6844,-5.686,-5.6897,-5.6888,-5.692,-5.695,-5.6927,-5.6975,-5.6981,-5.7009,-5.7015,-5.7051,-5.7018,-5.7043,-5.7049,-5.7056,-5.7065,-5.6877,-5.7055,-5.7054,-5.7054,-5.7053,-5.7053,0,-5.6934,-5.6936,-5.6971,-5.6995,-5.7025,-5.6985,-5.7,-5.7027,-5.707,-5.708,-5.7107,-5.7152,-5.7186,-5.7175,-5.7205,-5.7236,-5.7218,-5.7245,-5.7242,-5.7243,-5.7093,-5.7075,-5.7259,-5.7259,-5.7259,-5.7259,-5.7259,-5.7259,-5.7034,-5.7102,-5.709,-5.7162,-5.7163,-5.721,-5.7223,-5.7237,-5.7245,-5.7299,-5.7327,-5.732,-5.7322,-5.7352,-5.7381,-5.7377,-5.739,-5.7424,-5.7413,-5.7273,-5.7253,-5.7234,-5.7217,-5.7427,-5.7427,-5.756,-5.7561,-5.7562]}]]